• In Uzbekistan
  • List of Countries
  • For 7 days
  • Water Temperature
  • Satellite Maps
  • Weather Map
  • Weather Widgets
  • user-avatar
    Login

    Hourly Weather Quito

    Today, 19 January, Thursday

    Time Temperature Precipitation Wind Pressure Humidity
    00:00 +16°C° 0 mm 1 mps 621 mmHg 88%
    01:00 +15°C° 0 mm 1 mps 621 mmHg 89%
    02:00 +15°C° 0.1 mm 1 mps 621 mmHg 89%
    03:00 +15°C° 0.1 mm 2 mps 621 mmHg 89%
    04:00 +15°C° 0.1 mm 2 mps 621 mmHg 89%
    05:00 +14°C° 0.2 mm 2 mps 621 mmHg 88%
    06:00 +14°C° 0.2 mm 2 mps 622 mmHg 87%
    07:00 +14°C° 0.2 mm 2 mps 622 mmHg 86%
    08:00 +15°C° 0.1 mm 2 mps 622 mmHg 81%
    09:00 +17°C° 0.1 mm 2 mps 623 mmHg 75%
    10:00 +18°C° 0.1 mm 2 mps 624 mmHg 69%
    11:00 +20°C° 0 mm 2 mps 624 mmHg 61%
    12:00 +23°C° 0 mm 2 mps 624 mmHg 53%
    13:00 +25°C° 0 mm 2 mps 624 mmHg 45%
    14:00 +25°C° 0 mm 2 mps 624 mmHg 46%
    15:00 +25°C° 0 mm 2 mps 623 mmHg 48%
    16:00 +24°C° 0 mm 2 mps 623 mmHg 50%
    17:00 +21°C° 0 mm 2 mps 622 mmHg 57%
    18:00 +21°C° 0 mm 1 mps 622 mmHg 65%
    19:00 +19°C° 0 mm 1 mps 621 mmHg 72%
    20:00 +18°C° 0 mm 1 mps 622 mmHg 72%
    21:00 +18°C° 0 mm 1 mps 622 mmHg 71%
    22:00 +16°C° 0 mm 1 mps 622 mmHg 71%
    23:00 +16°C° 0 mm 1 mps 622 mmHg 71%

    Tomorrow, 20 January, Friday

    Time Temperature Precipitation Wind Pressure Humidity
    00:00 +15°C° 0 mm 1 mps 622 mmHg 72%
    01:00 +15°C° 0 mm 1 mps 621 mmHg 72%
    02:00 +15°C° 0 mm 1 mps 621 mmHg 73%
    03:00 +14°C° 0 mm 1 mps 621 mmHg 75%
    04:00 +14°C° 0 mm 1 mps 620 mmHg 76%
    05:00 +15°C° 0 mm 1 mps 621 mmHg 75%
    06:00 +16°C° 0 mm 1 mps 622 mmHg 73%
    07:00 +16°C° 0 mm 0 mps 623 mmHg 72%
    08:00 +20°C° 0 mm 1 mps 623 mmHg 63%
    09:00 +23°C° 0 mm 1 mps 624 mmHg 54%
    10:00 +25°C° 0 mm 1 mps 625 mmHg 44%
    11:00 +26°C° 0 mm 2 mps 624 mmHg 42%
    12:00 +27°C° 0 mm 2 mps 624 mmHg 39%
    13:00 +28°C° 0 mm 2 mps 624 mmHg 37%
    14:00 +27°C° 0.2 mm 3 mps 623 mmHg 42%
    15:00 +27°C° 0.2 mm 3 mps 622 mmHg 48%
    16:00 +26°C° 0.2 mm 3 mps 622 mmHg 53%
    17:00 +24°C° 0 mm 2 mps 621 mmHg 61%
    18:00 +21°C° 0 mm 2 mps 621 mmHg 70%
    19:00 +19°C° 0 mm 2 mps 621 mmHg 78%
    20:00 +19°C° 0.2 mm 2 mps 621 mmHg 83%
    21:00 +18°C° 0.2 mm 2 mps 621 mmHg 88%
    22:00 +17°C° 0.2 mm 2 mps 622 mmHg 93%
    23:00 +17°C° 0.1 mm 2 mps 621 mmHg 94%

    Day after tomorrow, 21 January, Saturday

    Time Temperature Precipitation Wind Pressure Humidity
    00:00 +16°C° 0.1 mm 2 mps 621 mmHg 95%
    01:00 +16°C° 0.1 mm 2 mps 621 mmHg 96%
    02:00 +15°C° 0 mm 2 mps 620 mmHg 96%
    03:00 +15°C° 0 mm 2 mps 620 mmHg 95%
    04:00 +14°C° 0 mm 2 mps 620 mmHg 94%
    05:00 +15°C° 0 mm 2 mps 620 mmHg 91%
    06:00 +16°C° 0 mm 2 mps 621 mmHg 88%
    07:00 +16°C° 0 mm 1 mps 622 mmHg 85%
    08:00 +19°C° 0 mm 2 mps 623 mmHg 72%
    09:00 +23°C° 0 mm 2 mps 624 mmHg 59%
    10:00 +26°C° 0 mm 2 mps 625 mmHg 46%
    11:00 +27°C° 0.1 mm 2 mps 624 mmHg 43%
    12:00 +28°C° 0.1 mm 2 mps 624 mmHg 39%
    13:00 +29°C° 0.1 mm 2 mps 624 mmHg 36%
    14:00 +27°C° 0.3 mm 2 mps 623 mmHg 45%
    15:00 +26°C° 0.3 mm 2 mps 622 mmHg 54%
    16:00 +25°C° 0.3 mm 2 mps 621 mmHg 63%
    17:00 +23°C° 0.2 mm 2 mps 621 mmHg 71%
    18:00 +20°C° 0.2 mm 2 mps 621 mmHg 79%
    19:00 +18°C° 0.2 mm 2 mps 621 mmHg 87%
    20:00 +17°C° 0 mm 2 mps 621 mmHg 89%
    21:00 +17°C° 0 mm 2 mps 622 mmHg 91%
    22:00 +16°C° 0 mm 1 mps 622 mmHg 93%
    23:00 +16°C° 0 mm 1 mps 621 mmHg 93%

    22 January, Sunday

    Time Temperature Precipitation Wind Pressure Humidity
    00:00 +15°C° 0 mm 1 mps 621 mmHg 93%
    01:00 +15°C° 0 mm 1 mps 621 mmHg 92%
    02:00 +15°C° 0 mm 1 mps 621 mmHg 92%
    03:00 +15°C° 0 mm 1 mps 621 mmHg 92%
    04:00 +16°C° 0 mm 1 mps 620 mmHg 92%
    05:00 +16°C° 0 mm 1 mps 621 mmHg 92%
    06:00 +16°C° 0 mm 1 mps 622 mmHg 91%
    07:00 +18°C° 0 mm 1 mps 622 mmHg 91%
    08:00 +19°C° 0.1 mm 1 mps 623 mmHg 85%
    09:00 +21°C° 0.1 mm 1 mps 623 mmHg 79%
    10:00 +22°C° 0.1 mm 1 mps 624 mmHg 73%
    11:00 +23°C° 0.8 mm 1 mps 623 mmHg 72%
    12:00 +23°C° 0.8 mm 1 mps 623 mmHg 70%
    13:00 +24°C° 0.8 mm 1 mps 622 mmHg 68%
    14:00 +24°C° 0.5 mm 1 mps 622 mmHg 70%
    15:00 +23°C° 0.5 mm 1 mps 622 mmHg 72%
    16:00 +23°C° 0.5 mm 1 mps 621 mmHg 73%
    17:00 +22°C° 0.3 mm 1 mps 621 mmHg 79%
    18:00 +20°C° 0.3 mm 1 mps 622 mmHg 85%
    19:00 +19°C° 0.3 mm 1 mps 622 mmHg 90%
    20:00 +18°C° 0 mm 1 mps 622 mmHg 92%
    21:00 +18°C° 0 mm 1 mps 622 mmHg 93%
    22:00 +16°C° 0 mm 1 mps 622 mmHg 94%
    23:00 +16°C° 0 mm 1 mps 622 mmHg 94%

    23 January, Monday

    Time Temperature Precipitation Wind Pressure Humidity
    00:00 +16°C° 0 mm 1 mps 621 mmHg 94%
    01:00 +15°C° 0 mm 1 mps 621 mmHg 95%
    02:00 +15°C° 0.1 mm 1 mps 621 mmHg 95%
    03:00 +15°C° 0.1 mm 1 mps 620 mmHg 95%
    04:00 +15°C° 0.1 mm 1 mps 620 mmHg 95%
    05:00 +16°C° 0.1 mm 1 mps 621 mmHg 93%
    06:00 +16°C° 0.1 mm 1 mps 622 mmHg 91%
    07:00 +18°C° 0.1 mm 1 mps 622 mmHg 89%
    08:00 +19°C° 0 mm 2 mps 623 mmHg 78%
    09:00 +21°C° 0 mm 2 mps 624 mmHg 68%
    10:00 +25°C° 0 mm 2 mps 624 mmHg 57%
    11:00 +26°C° 0.1 mm 1 mps 624 mmHg 52%
    12:00 +27°C° 0.1 mm 1 mps 624 mmHg 48%
    13:00 +28°C° 0.1 mm 1 mps 624 mmHg 44%
    14:00 +27°C° 0.7 mm 1 mps 623 mmHg 53%
    15:00 +26°C° 0.7 mm 1 mps 623 mmHg 63%
    16:00 +25°C° 0.7 mm 2 mps 622 mmHg 72%
    17:00 +23°C° 0.4 mm 2 mps 622 mmHg 78%
    18:00 +20°C° 0.4 mm 2 mps 622 mmHg 84%
    19:00 +18°C° 0.4 mm 2 mps 622 mmHg 90%
    20:00 +18°C° 0.5 mm 2 mps 622 mmHg 91%
    21:00 +17°C° 0.5 mm 2 mps 622 mmHg 92%
    22:00 +17°C° 0.5 mm 2 mps 623 mmHg 93%
    23:00 +17°C° 0.3 mm 2 mps 622 mmHg 93%

    24 January, Tuesday

    Time Temperature Precipitation Wind Pressure Humidity
    00:00 +17°C° 0.3 mm 2 mps 622 mmHg 93%
    01:00 +16°C° 0.3 mm 2 mps 622 mmHg 93%
    02:00 +16°C° 0.2 mm 2 mps 622 mmHg 93%
    03:00 +16°C° 0.2 mm 2 mps 622 mmHg 93%
    04:00 +16°C° 0.2 mm 2 mps 622 mmHg 94%
    05:00 +16°C° 0 mm 2 mps 622 mmHg 92%
    06:00 +16°C° 0 mm 2 mps 622 mmHg 91%
    07:00 +16°C° 0 mm 2 mps 623 mmHg 89%
    08:00 +19°C° 0 mm 2 mps 623 mmHg 78%
    09:00 +21°C° 0 mm 2 mps 624 mmHg 67%
    10:00 +25°C° 0 mm 2 mps 625 mmHg 56%
    11:00 +25°C° 0.5 mm 3 mps 624 mmHg 56%
    12:00 +25°C° 0.5 mm 3 mps 624 mmHg 56%
    13:00 +26°C° 0.5 mm 3 mps 623 mmHg 56%
    14:00 +25°C° 0.2 mm 3 mps 623 mmHg 58%
    15:00 +25°C° 0.2 mm 3 mps 623 mmHg 60%
    16:00 +24°C° 0.2 mm 3 mps 622 mmHg 62%
    17:00 +21°C° 0 mm 3 mps 622 mmHg 67%
    18:00 +20°C° 0 mm 2 mps 622 mmHg 71%
    19:00 +18°C° 0 mm 2 mps 622 mmHg 76%
    20:00 +17°C° 0 mm 2 mps 622 mmHg 78%
    21:00 +16°C° 0 mm 2 mps 622 mmHg 80%
    22:00 +15°C° 0 mm 2 mps 622 mmHg 81%
    23:00 +14°C° 0 mm 2 mps 622 mmHg 81%
    Show more